Overview Statistics Trail Chart Weather Telemetry Raw packets
 

This is the latest recevied weather packets stored in our database for station/object KK6MIG-13. If no packets are shown the sender has not sent any weather packets the latest 10 day(s).

<< 333 334 335 336 337 338 339 >>
Time Temp. Humidity Pressure Rain* Wind** Luminosity Snow
1788225715 16.11° C 26% 1012 hPa 0 mm - 104 W/m² -
1788225654 16.11° C 26% 1012 hPa 0 mm - 111 W/m² -
1788225593 16.11° C 26% 1012 hPa 0 mm - 127 W/m² -
1788225531 16.11° C 24% 1011.9 hPa 0 mm - 128 W/m² -
1788225471 16.11° C 23% 1011.9 hPa 0 mm - 132 W/m² -
1788225411 16.11° C 19% 1011.9 hPa 0 mm - 132 W/m² -
1788225352 16.11° C 18% 1012 hPa 0 mm - 132 W/m² -
1788225291 16.11° C 20% 1011.9 hPa 0 mm - 128 W/m² -
1788225231 16.11° C 20% 1012 hPa 0 mm - 127 W/m² -
1788225171 16.11° C 20% 1011.9 hPa 0 mm - 123 W/m² -
1788225111 16.11° C 19% 1011.9 hPa 0 mm - 125 W/m² -
1788225051 16.11° C 18% 1011.9 hPa 0 mm - 125 W/m² -
1788224987 16.11° C 16% 1011.9 hPa 0 mm - 121 W/m² -
1788224934 16.11° C 16% 1011.9 hPa 0 mm - 93 W/m² -
1788224867 16.11° C 17% 1011.9 hPa 0 mm - 91 W/m² -
1788224807 16.11° C 15% 1011.8 hPa 0 mm - 116 W/m² -
1788224747 16.11° C 15% 1011.9 hPa 0 mm - 130 W/m² -
1788224695 16.11° C 15% 1011.9 hPa 0 mm - 130 W/m² -
1788224691 16.11° C 14% 1011.8 hPa 0 mm - 128 W/m² -
1788224568 16.11° C 15% 1011.9 hPa 0 mm - 128 W/m² -
1788224507 16.11° C 17% 1011.8 hPa 0 mm - 139 W/m² -
1788224447 16.11° C 11% 1011.9 hPa 0 mm - 134 W/m² -
1788224387 16.11° C 12% 1011.9 hPa 0 mm - 130 W/m² -
1788224327 16.11° C 13% 1011.9 hPa 0 mm - 128 W/m² -
1788224263 16.11° C 14% 1011.9 hPa 0 mm - 128 W/m² -

* Rain latest hour (hover to see other rain measurements)
** Current wind speed in m/s (hover to see current wind gust speed)